QPF
0.00 0.00 0.00 0.00 0.00 0.01 0.01 0.01 0.01 0.00 0.00 0.00 0.00 0.00 0.00 0.00 0.00 0.00 0.00 0.00 0.00 0.00 0.00 0.01 0.02 0.01 0.01 0.00 0.00 0.00 0.00 0.00 0.00 0.00 0.00 0.01 0.01 0.01 0.01 0.01 0.02 0.02 0.02 0.02 0.02 0.03 0.04 0.05 0.05
0.00 0.00 0.00 0.00 0.01 0.01 0.02 0.01 0.00 0.00 0.00 0.00 0.00 0.00 0.00 0.00 0.00 0.00 0.00 0.00 0.01 0.01 0.00 0.00 0.02 0.01 0.01 0.00 0.00 0.00 0.00 0.00 0.00 0.01 0.01 0.01 0.01 0.01 0.02 0.03 0.02 0.02 0.02 0.02 0.03 0.04 0.04 0.04 0.07
0.00 0.01 0.00 0.01 0.01 0.01 0.02 0.01 0.01 0.00 0.00 0.00 0.00 0.00 0.00 0.00 0.01 0.01 0.00 0.00 0.01 0.02 0.00 0.01 0.02 0.01 0.01 0.01 0.00 0.00 0.00 0.00 0.00 0.01 0.01 0.01 0.01 0.02 0.03 0.03 0.02 0.02 0.02 0.03 0.04 0.04 0.04 0.05 0.06
0.01 0.01 0.00 0.00 0.01 0.01 0.02 0.01 0.01 0.01 0.00 0.00 0.00 0.00 0.00 0.00 0.01 0.01 0.00 0.00 0.01 0.02 0.02 0.02 0.02 0.01 0.01 0.01 0.00 0.00 0.00 0.00 0.01 0.01 0.01 0.02 0.02 0.03 0.03 0.02 0.02 0.02 0.03 0.03 0.04 0.04 0.03 0.04 0.06
0.00 0.00 0.01 0.01 0.01 0.01 0.01 0.01 0.01 0.01 0.00 0.00 0.00 0.00 0.00 0.00 0.00 0.00 0.00 0.00 0.00 0.01 0.01 0.01 0.03 0.03 0.02 0.01 0.01 0.01 0.01 0.01 0.01 0.01 0.01 0.02 0.02 0.02 0.02 0.02 0.03 0.02 0.03 0.04 0.04 0.04 0.04 0.05 0.07
0.00 0.01 0.01 0.01 0.02 0.02 0.01 0.01 0.01 0.01 0.00 0.00 0.00 0.00 0.00 0.00 0.00 0.00 0.00 0.01 0.00 0.00 0.00 0.01 0.02 0.03 0.02 0.01 0.01 0.02 0.01 0.01 0.01 0.01 0.01 0.02 0.01 0.01 0.02 0.03 0.02 0.02 0.02 0.03 0.04 0.04 0.04 0.05 0.06
0.00 0.01 0.00 0.00 0.01 0.02 0.01 0.01 0.01 0.01 0.00 0.00 0.00 0.00 0.00 0.01 0.00 0.00 0.00 0.00 0.00 0.00 0.00 0.01 0.02 0.03 0.03 0.02 0.02 0.02 0.01 0.01 0.01 0.01 0.01 0.01 0.01 0.01 0.02 0.02 0.02 0.02 0.02 0.03 0.04 0.04 0.04 0.04 0.05
0.00 0.00 0.00 0.00 0.00 0.01 0.01 0.01 0.01 0.03 0.01 0.01 0.00 0.00 0.00 0.00 0.00 0.00 0.00 0.00 0.01 0.01 0.01 0.02 0.03 0.04 0.03 0.02 0.02 0.02 0.02 0.01 0.01 0.01 0.01 0.02 0.02 0.02 0.02 0.02 0.02 0.02 0.03 0.02 0.03 0.04 0.03 0.03 0.05
0.00 0.00 0.00 0.00 0.00 0.00 0.00 0.00 0.01 0.02 0.01 0.01 0.00 0.00 0.00 0.00 0.00 0.01 0.01 0.01 0.01 0.01 0.02 0.02 0.03 0.04 0.03 0.02 0.03 0.02 0.02 0.02 0.01 0.02 0.02 0.02 0.01 0.01 0.01 0.01 0.02 0.01 0.02 0.02 0.03 0.03 0.02 0.03 0.05
0.00 0.00 0.00 0.00 0.00 0.00 0.00 0.00 0.00 0.00 0.01 0.00 0.00 0.00 0.00 0.00 0.00 0.01 0.02 0.01 0.00 0.01 0.01 0.02 0.02 0.02 0.02 0.01 0.01 0.02 0.02 0.02 0.01 0.01 0.01 0.01 0.01 0.00 0.00 0.01 0.02 0.01 0.02 0.02 0.03 0.04 0.03 0.02 0.02
0.00 0.00 0.00 0.00 0.00 0.00 0.00 0.00 0.00 0.00 0.00 0.00 0.00 0.00 0.00 0.01 0.01 0.02 0.02 0.01 0.01 0.00 0.01 0.01 0.02 0.02 0.02 0.03 0.01 0.02 0.02 0.02 0.01 0.00 0.00 0.00 0.00 0.00 0.00 0.01 0.02 0.02 0.02 0.01 0.02 0.02 0.01 0.02 0.02
0.00 0.00 0.00 0.00 0.00 0.00 0.00 0.00 0.00 0.00 0.00 0.00 0.00 0.00 0.00 0.01 0.03 0.04 0.03 0.02 0.02 0.01 0.01 0.01 0.01 0.02 0.02 0.02 0.03 0.03 0.02 0.01 0.00 0.00 0.00 0.00 0.00 0.00 0.00 0.00 0.00 0.00 0.00 0.01 0.01 0.01 0.02 0.02 0.02
0.00 0.00 0.00 0.00 0.00 0.00 0.00 0.00 0.00 0.00 0.00 0.00 0.00 0.00 0.00 0.01 0.05 0.06 0.04 0.03 0.02 0.03 0.02 0.02 0.02 0.03 0.02 0.03 0.02 0.03 0.01 0.01 0.00 0.00 0.00 0.00 0.00 0.00 0.00 0.00 0.00 0.00 0.00 0.00 0.01 0.02 0.02 0.03 0.03
0.00 0.00 0.00 0.00 0.00 0.00 0.00 0.00 0.00 0.00 0.00 0.00 0.00 0.00 0.01 0.02 0.07 0.08 0.04 0.03 0.03 0.02 0.02 0.03 0.03 0.04 0.04 0.04 0.03 0.03 0.02 0.01 0.02 0.02 0.01 0.01 0.01 0.01 0.01 0.00 0.00 0.00 0.00 0.00 0.01 0.02 0.02 0.03 0.03
0.00 0.00 0.00 0.00 0.00 0.00 0.00 0.00 0.00 0.00 0.00 0.00 0.00 0.00 0.02 0.05 0.07 0.04 0.02 0.04 0.03 0.03 0.03 0.04 0.03 0.04 0.05 0.04 0.03 0.02 0.03 0.03 0.03 0.03 0.03 0.02 0.02 0.03 0.03 0.01 0.00 0.00 0.01 0.01 0.02 0.03 0.02 0.02 0.04
0.00 0.00 0.00 0.00 0.00 0.00 0.00 0.00 0.00 0.00 0.00 0.00 0.00 0.00 0.01 0.02 0.02 0.02 0.04 0.05 0.04 0.04 0.05 0.04 0.03 0.04 0.05 0.05 0.05 0.05 0.07 0.07 0.06 0.05 0.03 0.02 0.02 0.03 0.03 0.03 0.02 0.01 0.02 0.02 0.03 0.02 0.02 0.03 0.04
0.00 0.00 0.00 0.00 0.00 0.00 0.00 0.00 0.00 0.00 0.00 0.00 0.00 0.01 0.01 0.02 0.02 0.02 0.06 0.09 0.07 0.07 0.07 0.06 0.06 0.07 0.06 0.08 0.08 0.08 0.10 0.08 0.07 0.06 0.05 0.04 0.04 0.04 0.05 0.05 0.03 0.03 0.03 0.03 0.03 0.03 0.04 0.03 0.04
0.00 0.00 0.00 0.00 0.00 0.00 0.00 0.00 0.00 0.00 0.00 0.00 0.00 0.01 0.01 0.02 0.02 0.02 0.04 0.09 0.10 0.09 0.10 0.10 0.08 0.11 0.11 0.10 0.10 0.13 0.15 0.14 0.10 0.08 0.08 0.07 0.06 0.06 0.06 0.05 0.05 0.04 0.03 0.03 0.03 0.04 0.03 0.03 0.04
0.00 0.00 0.00 0.00 0.00 0.00 0.00 0.00 0.00 0.00 0.00 0.00 0.01 0.01 0.01 0.01 0.02 0.03 0.04 0.08 0.11 0.11 0.14 0.11 0.09 0.12 0.13 0.10 0.10 0.13 0.17 0.16 0.12 0.13 0.11 0.07 0.06 0.06 0.05 0.05 0.04 0.04 0.03 0.04 0.04 0.05 0.03 0.03 0.03
0.00 0.00 0.00 0.00 0.00 0.00 0.00 0.00 0.00 0.00 0.00 0.01 0.01 0.01 0.02 0.02 0.02 0.04 0.05 0.07 0.10 0.13 0.15 0.16 0.13 0.15 0.14 0.11 0.10 0.12 0.13 0.14 0.10 0.12 0.11 0.07 0.05 0.05 0.05 0.05 0.05 0.04 0.05 0.05 0.04 0.04 0.03 0.03 0.03
0.00 0.00 0.00 0.00 0.00 0.00 0.00 0.00 0.00 0.00 0.01 0.02 0.02 0.02 0.02 0.03 0.03 0.04 0.05 0.07 0.12 0.20 0.25 0.23 0.20 0.20 0.17 0.14 0.15 0.16 0.15 0.16 0.13 0.09 0.07 0.05 0.05 0.05 0.04 0.04 0.04 0.04 0.05 0.05 0.03 0.02 0.02 0.03 0.03
0.00 0.00 0.00 0.00 0.00 0.00 0.00 0.00 0.00 0.00 0.01 0.01 0.02 0.02 0.04 0.04 0.03 0.03 0.05 0.09 0.22 0.31 0.25 0.19 0.19 0.20 0.20 0.19 0.14 0.13 0.10 0.09 0.08 0.07 0.06 0.07 0.05 0.04 0.05 0.04 0.04 0.05 0.05 0.04 0.03 0.02 0.02 0.03 0.04
0.00 0.00 0.00 0.00 0.00 0.00 0.00 0.00 0.00 0.00 0.01 0.01 0.02 0.02 0.03 0.03 0.03 0.03 0.06 0.16 0.22 0.23 0.16 0.15 0.16 0.16 0.17 0.16 0.15 0.13 0.10 0.09 0.10 0.10 0.07 0.07 0.07 0.06 0.06 0.06 0.04 0.04 0.05 0.04 0.03 0.03 0.03 0.03 0.03
0.00 0.00 0.00 0.00 0.00 0.00 0.00 0.00 0.00 0.00 0.00 0.01 0.01 0.01 0.02 0.03 0.03 0.04 0.08 0.13 0.11 0.12 0.11 0.12 0.14 0.13 0.11 0.13 0.14 0.11 0.09 0.10 0.11 0.09 0.07 0.06 0.08 0.09 0.07 0.05 0.05 0.04 0.04 0.03 0.04 0.05 0.05 0.04 0.03
0.00 0.00 0.00 0.00 0.00 0.00 0.00 0.00 0.00 0.00 0.00 0.00 0.00 0.01 0.02 0.02 0.03 0.05 0.06 0.07 0.09 0.11 0.11 0.11 0.11 0.11 0.10 0.11 0.15 0.14 0.14 0.13 0.11 0.09 0.08 0.08 0.07 0.06 0.06 0.05 0.04 0.03 0.03 0.04 0.05 0.05 0.03 0.03 0.02
0.00 0.00 0.00 0.00 0.00 0.00 0.00 0.00 0.00 0.00 0.00 0.00 0.00 0.01 0.02 0.02 0.03 0.04 0.06 0.07 0.09 0.13 0.15 0.11 0.09 0.08 0.09 0.09 0.12 0.14 0.15 0.16 0.14 0.11 0.10 0.08 0.07 0.06 0.07 0.07 0.05 0.05 0.05 0.05 0.05 0.03 0.03 0.03 0.02
0.00 0.00 0.00 0.00 0.00 0.00 0.00 0.00 0.00 0.00 0.00 0.00 0.01 0.01 0.02 0.02 0.05 0.07 0.06 0.08 0.10 0.10 0.15 0.11 0.07 0.08 0.09 0.11 0.12 0.14 0.15 0.17 0.17 0.14 0.12 0.09 0.08 0.08 0.08 0.07 0.07 0.06 0.06 0.05 0.05 0.04 0.04 0.04 0.03
0.00 0.00 0.00 0.00 0.00 0.00 0.00 0.00 0.00 0.00 0.00 0.00 0.01 0.01 0.02 0.02 0.03 0.05 0.10 0.08 0.09 0.07 0.06 0.05 0.05 0.06 0.07 0.09 0.09 0.08 0.12 0.16 0.17 0.15 0.11 0.09 0.10 0.10 0.09 0.09 0.08 0.07 0.06 0.05 0.06 0.05 0.05 0.04 0.03
0.00 0.00 0.00 0.00 0.00 0.00 0.00 0.00 0.00 0.00 0.00 0.01 0.01 0.01 0.02 0.02 0.01 0.02 0.05 0.05 0.06 0.05 0.04 0.04 0.04 0.04 0.04 0.06 0.09 0.06 0.06 0.09 0.08 0.09 0.12 0.12 0.11 0.09 0.08 0.09 0.09 0.07 0.06 0.07 0.07 0.05 0.06 0.04 0.04
0.00 0.00 0.00 0.00 0.00 0.00 0.00 0.00 0.00 0.00 0.00 0.01 0.01 0.02 0.03 0.03 0.03 0.03 0.03 0.05 0.06 0.05 0.04 0.04 0.03 0.03 0.03 0.04 0.10 0.10 0.05 0.06 0.06 0.08 0.11 0.13 0.13 0.11 0.10 0.09 0.08 0.07 0.06 0.07 0.08 0.07 0.07 0.06 0.05
MSLP
1008.63 1009.70 1010.96 1012.21 1013.27 1013.99 1014.30 1014.24 1013.91 1013.46 1013.06 1012.82 1012.80 1012.99 1013.30 1013.64 1013.89 1013.98 1013.89 1013.67 1013.40 1013.18 1013.09 1013.18 1013.44 1013.81 1014.22 1014.59 1014.86 1015.01 1015.05 1015.04 1015.02 1015.06 1015.19 1015.39 1015.65 1015.92 1016.15 1016.32 1016.41 1016.44 1016.45 1016.47 1016.55 1016.69 1016.89 1017.14 1017.39
1009.13 1010.39 1011.76 1013.02 1014.00 1014.56 1014.66 1014.38 1013.82 1013.18 1012.63 1012.30 1012.22 1012.39 1012.72 1013.08 1013.36 1013.48 1013.43 1013.26 1013.05 1012.89 1012.87 1013.02 1013.35 1013.78 1014.25 1014.68 1015.00 1015.19 1015.28 1015.30 1015.32 1015.38 1015.52 1015.72 1015.96 1016.21 1016.41 1016.56 1016.63 1016.67 1016.69 1016.73 1016.83 1017.00 1017.21 1017.46 1017.72
1009.82 1011.21 1012.61 1013.82 1014.65 1015.01 1014.90 1014.39 1013.65 1012.87 1012.23 1011.85 1011.77 1011.96 1012.31 1012.69 1013.00 1013.15 1013.14 1013.00 1012.83 1012.72 1012.75 1012.96 1013.33 1013.81 1014.32 1014.78 1015.14 1015.37 1015.50 1015.56 1015.60 1015.68 1015.81 1016.00 1016.22 1016.43 1016.61 1016.73 1016.81 1016.86 1016.91 1016.99 1017.12 1017.31 1017.55 1017.80 1018.05
1010.65 1012.09 1013.45 1014.53 1015.17 1015.32 1014.99 1014.30 1013.43 1012.57 1011.91 1011.55 1011.51 1011.74 1012.13 1012.55 1012.88 1013.05 1013.06 1012.95 1012.82 1012.74 1012.81 1013.04 1013.43 1013.93 1014.45 1014.93 1015.30 1015.55 1015.70 1015.79 1015.85 1015.94 1016.07 1016.24 1016.43 1016.62 1016.78 1016.90 1016.98 1017.06 1017.15 1017.28 1017.45 1017.67 1017.92 1018.17 1018.41
1011.52 1012.93 1014.17 1015.07 1015.50 1015.43 1014.91 1014.10 1013.16 1012.31 1011.70 1011.41 1011.45 1011.75 1012.19 1012.64 1012.99 1013.18 1013.21 1013.12 1013.01 1012.97 1013.05 1013.30 1013.69 1014.17 1014.67 1015.13 1015.49 1015.74 1015.90 1016.00 1016.08 1016.17 1016.30 1016.46 1016.64 1016.81 1016.96 1017.08 1017.19 1017.30 1017.44 1017.62 1017.84 1018.08 1018.34 1018.58 1018.79
1012.32 1013.63 1014.68 1015.36 1015.56 1015.29 1014.64 1013.77 1012.85 1012.07 1011.57 1011.40 1011.55 1011.94 1012.43 1012.92 1013.29 1013.48 1013.52 1013.46 1013.38 1013.36 1013.46 1013.70 1014.07 1014.51 1014.97 1015.37 1015.70 1015.93 1016.08 1016.19 1016.28 1016.40 1016.54 1016.70 1016.87 1017.04 1017.19 1017.33 1017.46 1017.61 1017.80 1018.01 1018.27 1018.53 1018.79 1019.01 1019.19
1012.95 1014.07 1014.90 1015.33 1015.31 1014.89 1014.16 1013.29 1012.46 1011.82 1011.48 1011.47 1011.74 1012.21 1012.76 1013.27 1013.65 1013.85 1013.91 1013.87 1013.82 1013.83 1013.94 1014.17 1014.51 1014.90 1015.29 1015.64 1015.91 1016.11 1016.25 1016.36 1016.48 1016.62 1016.78 1016.96 1017.15 1017.32 1017.48 1017.64 1017.79 1017.97 1018.19 1018.44 1018.71 1018.98 1019.23 1019.43 1019.58
1013.32 1014.22 1014.80 1014.98 1014.77 1014.23 1013.49 1012.68 1011.98 1011.52 1011.36 1011.52 1011.92 1012.47 1013.06 1013.59 1013.97 1014.18 1014.26 1014.25 1014.24 1014.28 1014.42 1014.64 1014.95 1015.28 1015.61 1015.88 1016.10 1016.26 1016.40 1016.52 1016.67 1016.85 1017.05 1017.26 1017.47 1017.66 1017.83 1017.99 1018.15 1018.34 1018.57 1018.84 1019.11 1019.38 1019.61 1019.80 1019.92
1013.44 1014.09 1014.41 1014.37 1014.00 1013.39 1012.66 1011.96 1011.43 1011.16 1011.19 1011.49 1012.01 1012.62 1013.24 1013.76 1014.14 1014.37 1014.47 1014.52 1014.56 1014.65 1014.81 1015.04 1015.32 1015.61 1015.87 1016.09 1016.26 1016.40 1016.53 1016.68 1016.87 1017.09 1017.33 1017.58 1017.81 1018.01 1018.18 1018.34 1018.50 1018.69 1018.91 1019.16 1019.43 1019.69 1019.91 1020.07 1020.18
1013.35 1013.76 1013.83 1013.59 1013.10 1012.45 1011.77 1011.20 1010.83 1010.74 1010.93 1011.37 1011.96 1012.62 1013.24 1013.76 1014.13 1014.38 1014.52 1014.62 1014.72 1014.87 1015.07 1015.32 1015.59 1015.84 1016.06 1016.24 1016.38 1016.51 1016.65 1016.83 1017.05 1017.32 1017.61 1017.89 1018.14 1018.35 1018.52 1018.66 1018.80 1018.96 1019.16 1019.40 1019.65 1019.89 1020.10 1020.26 1020.36
1013.16 1013.33 1013.20 1012.80 1012.21 1011.55 1010.94 1010.48 1010.26 1010.32 1010.63 1011.15 1011.79 1012.45 1013.07 1013.57 1013.95 1014.21 1014.40 1014.56 1014.73 1014.94 1015.19 1015.47 1015.74 1015.98 1016.18 1016.33 1016.46 1016.59 1016.75 1016.96 1017.23 1017.53 1017.86 1018.16 1018.43 1018.64 1018.79 1018.91 1019.03 1019.16 1019.33 1019.54 1019.77 1020.00 1020.21 1020.36 1020.47
1012.97 1012.95 1012.65 1012.13 1011.48 1010.83 1010.27 1009.91 1009.80 1009.95 1010.34 1010.90 1011.54 1012.19 1012.77 1013.26 1013.63 1013.92 1014.15 1014.37 1014.61 1014.89 1015.19 1015.50 1015.79 1016.03 1016.23 1016.38 1016.51 1016.66 1016.84 1017.08 1017.37 1017.71 1018.05 1018.37 1018.64 1018.85 1019.00 1019.10 1019.19 1019.30 1019.44 1019.62 1019.84 1020.06 1020.27 1020.44 1020.56
1012.89 1012.73 1012.30 1011.70 1011.02 1010.38 1009.87 1009.57 1009.52 1009.71 1010.12 1010.66 1011.27 1011.88 1012.42 1012.89 1013.26 1013.57 1013.85 1014.12 1014.42 1014.75 1015.09 1015.43 1015.74 1016.01 1016.22 1016.39 1016.54 1016.71 1016.91 1017.17 1017.48 1017.83 1018.18 1018.50 1018.77 1018.98 1019.12 1019.22 1019.30 1019.39 1019.52 1019.69 1019.90 1020.12 1020.33 1020.52 1020.67
1012.99 1012.73 1012.23 1011.58 1010.90 1010.27 1009.79 1009.52 1009.47 1009.65 1010.02 1010.50 1011.04 1011.59 1012.09 1012.53 1012.90 1013.23 1013.54 1013.86 1014.20 1014.56 1014.93 1015.30 1015.63 1015.92 1016.17 1016.37 1016.56 1016.75 1016.97 1017.24 1017.55 1017.89 1018.23 1018.55 1018.81 1019.02 1019.17 1019.28 1019.38 1019.48 1019.62 1019.79 1020.00 1020.22 1020.45 1020.65 1020.82
1013.26 1012.94 1012.41 1011.76 1011.09 1010.48 1010.01 1009.73 1009.65 1009.77 1010.04 1010.44 1010.89 1011.36 1011.81 1012.22 1012.59 1012.94 1013.27 1013.61 1013.97 1014.34 1014.73 1015.11 1015.47 1015.79 1016.08 1016.33 1016.56 1016.79 1017.03 1017.30 1017.59 1017.90 1018.22 1018.51 1018.77 1018.99 1019.16 1019.30 1019.44 1019.57 1019.73 1019.92 1020.14 1020.38 1020.62 1020.84 1021.03
1013.64 1013.29 1012.77 1012.15 1011.51 1010.93 1010.47 1010.15 1010.00 1010.02 1010.18 1010.45 1010.80 1011.18 1011.58 1011.97 1012.34 1012.69 1013.04 1013.38 1013.74 1014.11 1014.49 1014.88 1015.26 1015.62 1015.96 1016.26 1016.55 1016.82 1017.08 1017.34 1017.61 1017.88 1018.15 1018.41 1018.66 1018.89 1019.09 1019.28 1019.47 1019.66 1019.86 1020.08 1020.31 1020.56 1020.81 1021.05 1021.25
1014.03 1013.69 1013.21 1012.65 1012.08 1011.54 1011.08 1010.71 1010.47 1010.36 1010.38 1010.51 1010.73 1011.03 1011.37 1011.74 1012.11 1012.48 1012.83 1013.17 1013.52 1013.87 1014.24 1014.62 1015.02 1015.42 1015.81 1016.18 1016.53 1016.84 1017.12 1017.37 1017.60 1017.82 1018.04 1018.26 1018.49 1018.72 1018.96 1019.21 1019.45 1019.70 1019.95 1020.20 1020.46 1020.72 1020.97 1021.22 1021.44
1014.32 1014.03 1013.63 1013.18 1012.70 1012.21 1011.75 1011.34 1010.99 1010.73 1010.59 1010.56 1010.66 1010.86 1011.16 1011.51 1011.89 1012.26 1012.63 1012.97 1013.29 1013.62 1013.96 1014.34 1014.75 1015.19 1015.64 1016.08 1016.50 1016.86 1017.16 1017.40 1017.59 1017.75 1017.90 1018.07 1018.27 1018.50 1018.76 1019.05 1019.36 1019.66 1019.96 1020.25 1020.52 1020.78 1021.04 1021.28 1021.52
1014.46 1014.25 1013.98 1013.66 1013.30 1012.89 1012.44 1011.97 1011.51 1011.09 1010.77 1010.57 1010.53 1010.64 1010.89 1011.23 1011.63 1012.03 1012.41 1012.76 1013.07 1013.37 1013.69 1014.06 1014.48 1014.95 1015.46 1015.97 1016.44 1016.85 1017.17 1017.40 1017.55 1017.65 1017.74 1017.84 1018.00 1018.22 1018.49 1018.82 1019.17 1019.52 1019.85 1020.16 1020.44 1020.71 1020.96 1021.20 1021.45
1014.41 1014.33 1014.23 1014.09 1013.88 1013.56 1013.14 1012.61 1012.01 1011.42 1010.91 1010.53 1010.35 1010.36 1010.57 1010.91 1011.33 1011.78 1012.19 1012.55 1012.87 1013.16 1013.46 1013.80 1014.23 1014.72 1015.26 1015.83 1016.35 1016.80 1017.14 1017.36 1017.48 1017.52 1017.55 1017.59 1017.70 1017.89 1018.16 1018.50 1018.87 1019.25 1019.61 1019.93 1020.22 1020.47 1020.72 1020.97 1021.22
1014.23 1014.32 1014.43 1014.50 1014.46 1014.26 1013.85 1013.26 1012.53 1011.75 1011.03 1010.46 1010.12 1010.04 1010.20 1010.54 1011.01 1011.51 1011.98 1012.38 1012.71 1013.00 1013.28 1013.60 1014.01 1014.50 1015.06 1015.65 1016.21 1016.69 1017.05 1017.27 1017.36 1017.36 1017.33 1017.32 1017.38 1017.53 1017.78 1018.11 1018.49 1018.88 1019.25 1019.57 1019.86 1020.11 1020.34 1020.59 1020.85
1013.98 1014.29 1014.65 1014.95 1015.10 1015.01 1014.62 1013.96 1013.08 1012.11 1011.17 1010.40 1009.90 1009.70 1009.82 1010.18 1010.69 1011.27 1011.81 1012.26 1012.63 1012.91 1013.17 1013.46 1013.83 1014.30 1014.85 1015.43 1016.01 1016.50 1016.87 1017.09 1017.17 1017.15 1017.08 1017.02 1017.04 1017.15 1017.37 1017.69 1018.05 1018.44 1018.80 1019.13 1019.41 1019.65 1019.88 1020.13 1020.40
1013.77 1014.33 1014.95 1015.49 1015.83 1015.84 1015.47 1014.72 1013.69 1012.51 1011.35 1010.37 1009.71 1009.40 1009.47 1009.84 1010.41 1011.07 1011.69 1012.21 1012.61 1012.90 1013.14 1013.38 1013.69 1014.10 1014.60 1015.16 1015.71 1016.21 1016.58 1016.81 1016.90 1016.87 1016.79 1016.71 1016.70 1016.78 1016.97 1017.25 1017.60 1017.97 1018.33 1018.64 1018.92 1019.17 1019.40 1019.64 1019.92
1013.64 1014.46 1015.34 1016.12 1016.62 1016.72 1016.35 1015.52 1014.33 1012.95 1011.58 1010.41 1009.58 1009.17 1009.19 1009.57 1010.19 1010.92 1011.62 1012.21 1012.65 1012.95 1013.15 1013.34 1013.57 1013.90 1014.32 1014.82 1015.34 1015.82 1016.20 1016.44 1016.55 1016.54 1016.47 1016.39 1016.36 1016.42 1016.57 1016.83 1017.15 1017.49 1017.83 1018.15 1018.43 1018.67 1018.91 1019.17 1019.45
1013.64 1014.70 1015.81 1016.78 1017.42 1017.58 1017.19 1016.28 1014.95 1013.39 1011.83 1010.49 1009.51 1009.01 1008.99 1009.37 1010.04 1010.83 1011.60 1012.25 1012.72 1013.01 1013.19 1013.31 1013.45 1013.68 1014.01 1014.43 1014.90 1015.35 1015.74 1016.01 1016.15 1016.18 1016.13 1016.07 1016.03 1016.07 1016.19 1016.41 1016.69 1017.00 1017.32 1017.63 1017.91 1018.17 1018.43 1018.69 1018.98
1013.73 1014.97 1016.26 1017.37 1018.10 1018.29 1017.87 1016.89 1015.45 1013.76 1012.06 1010.58 1009.51 1008.93 1008.87 1009.25 1009.94 1010.78 1011.60 1012.29 1012.78 1013.07 1013.21 1013.27 1013.33 1013.46 1013.69 1014.04 1014.45 1014.87 1015.26 1015.55 1015.73 1015.80 1015.80 1015.75 1015.71 1015.72 1015.80 1015.97 1016.19 1016.47 1016.76 1017.05 1017.34 1017.61 1017.89 1018.17 1018.47
1013.84 1015.21 1016.59 1017.76 1018.52 1018.72 1018.28 1017.24 1015.74 1013.97 1012.20 1010.66 1009.53 1008.91 1008.82 1009.19 1009.90 1010.75 1011.60 1012.31 1012.81 1013.10 1013.20 1013.21 1013.20 1013.25 1013.41 1013.68 1014.04 1014.44 1014.83 1015.14 1015.36 1015.47 1015.49 1015.45 1015.39 1015.36 1015.39 1015.48 1015.63 1015.84 1016.09 1016.36 1016.64 1016.93 1017.23 1017.54 1017.86
1013.91 1015.30 1016.68 1017.84 1018.58 1018.75 1018.29 1017.24 1015.73 1013.98 1012.22 1010.68 1009.55 1008.94 1008.84 1009.21 1009.90 1010.75 1011.59 1012.30 1012.80 1013.08 1013.18 1013.15 1013.11 1013.11 1013.22 1013.44 1013.77 1014.15 1014.53 1014.85 1015.08 1015.21 1015.23 1015.17 1015.08 1014.98 1014.92 1014.91 1014.96 1015.09 1015.27 1015.50 1015.77 1016.08 1016.40 1016.75 1017.11
1013.87 1015.18 1016.47 1017.53 1018.19 1018.32 1017.85 1016.83 1015.39 1013.73 1012.07 1010.63 1009.58 1009.01 1008.93 1009.28 1009.95 1010.77 1011.58 1012.27 1012.77 1013.05 1013.15 1013.13 1013.09 1013.08 1013.18 1013.38 1013.69 1014.05 1014.42 1014.74 1014.96 1015.07 1015.06 1014.95 1014.77 1014.58 1014.39 1014.25 1014.19 1014.20 1014.29 1014.47 1014.72 1015.02 1015.38 1015.77 1016.18
1013.69 1014.82 1015.94 1016.84 1017.38 1017.44 1016.99 1016.05 1014.75 1013.25 1011.78 1010.51 1009.59 1009.11 1009.08 1009.43 1010.06 1010.83 1011.59 1012.25 1012.73 1013.02 1013.15 1013.18 1013.18 1013.21 1013.33 1013.54 1013.84 1014.19 1014.54 1014.82 1015.00 1015.06 1014.97 1014.78 1014.50 1014.17 1013.84 1013.55 1013.34 1013.22 1013.21 1013.32 1013.53 1013.83 1014.22 1014.66 1015.13
Thickness
5823 5821 5818 5807 5786 5763 5759 5771 5782 5784 5787 5795 5796 5790 5780 5772 5765 5761 5777 5785 5783 5778 5775 5772 5769 5766 5764 5763 5762 5761 5761 5760 5759 5759 5758 5758 5757 5756 5756 5755 5755 5754 5753 5752 5751 5750 5749 5748 5747
5825 5822 5813 5798 5770 5747 5757 5776 5781 5788 5795 5800 5798 5792 5782 5777 5780 5778 5780 5783 5783 5779 5774 5771 5768 5766 5763 5762 5761 5760 5759 5758 5757 5757 5756 5755 5755 5754 5754 5753 5752 5751 5750 5749 5749 5748 5747 5746 5744
5827 5823 5803 5785 5765 5754 5764 5781 5787 5797 5804 5801 5794 5793 5786 5779 5783 5782 5785 5786 5782 5777 5773 5770 5767 5765 5762 5761 5759 5758 5757 5756 5755 5755 5754 5753 5753 5752 5751 5751 5750 5749 5748 5747 5746 5745 5744 5743 5742
5824 5812 5798 5777 5767 5774 5781 5790 5797 5797 5801 5803 5797 5788 5790 5794 5791 5789 5788 5786 5780 5776 5772 5769 5766 5763 5761 5760 5758 5757 5756 5755 5754 5753 5752 5752 5751 5750 5749 5749 5748 5747 5746 5745 5744 5743 5742 5741 5740
5820 5801 5780 5766 5771 5784 5796 5803 5803 5797 5796 5799 5796 5784 5783 5794 5797 5793 5788 5784 5779 5774 5771 5768 5765 5762 5760 5758 5757 5755 5754 5753 5752 5751 5750 5750 5749 5748 5747 5747 5746 5745 5744 5743 5742 5741 5740 5739 5738
5804 5790 5766 5761 5773 5791 5802 5809 5806 5799 5798 5800 5795 5784 5782 5792 5792 5790 5787 5782 5778 5773 5769 5766 5763 5760 5758 5757 5755 5754 5753 5751 5750 5749 5748 5748 5747 5746 5745 5745 5744 5743 5742 5741 5740 5739 5738 5737 5736
5797 5781 5768 5770 5774 5786 5802 5811 5806 5800 5797 5799 5799 5783 5782 5787 5791 5789 5785 5780 5775 5771 5767 5764 5761 5758 5756 5754 5753 5752 5750 5749 5748 5747 5746 5745 5745 5744 5743 5743 5742 5741 5739 5738 5738 5737 5736 5736 5735
5805 5784 5773 5771 5777 5787 5806 5811 5813 5807 5802 5810 5805 5786 5781 5788 5791 5787 5781 5776 5772 5769 5766 5762 5760 5757 5754 5752 5751 5750 5748 5747 5746 5745 5745 5744 5743 5742 5741 5741 5740 5739 5737 5736 5736 5735 5734 5734 5733
5810 5778 5768 5777 5783 5794 5808 5807 5814 5820 5811 5809 5809 5803 5801 5797 5791 5783 5776 5771 5768 5766 5764 5761 5758 5755 5753 5751 5749 5748 5746 5745 5744 5743 5742 5741 5740 5740 5739 5739 5738 5737 5736 5735 5734 5733 5732 5732 5732
5798 5773 5783 5797 5803 5805 5809 5809 5812 5810 5804 5803 5803 5804 5803 5795 5788 5780 5775 5770 5767 5765 5763 5761 5758 5754 5752 5750 5748 5746 5745 5743 5742 5741 5740 5739 5738 5738 5737 5737 5737 5736 5735 5733 5732 5731 5731 5730 5730
5800 5789 5799 5808 5814 5814 5810 5812 5816 5806 5798 5805 5804 5799 5798 5792 5786 5780 5777 5774 5770 5767 5763 5760 5757 5754 5751 5749 5747 5745 5743 5742 5740 5739 5738 5737 5736 5736 5735 5735 5735 5734 5733 5732 5731 5730 5729 5729 5728
5801 5804 5809 5814 5820 5816 5813 5813 5811 5809 5814 5824 5819 5810 5801 5793 5787 5783 5779 5775 5771 5766 5764 5761 5758 5754 5751 5749 5746 5744 5742 5740 5738 5737 5736 5735 5734 5733 5733 5733 5733 5733 5732 5730 5729 5729 5728 5728 5727
5803 5806 5814 5818 5819 5818 5817 5813 5812 5814 5825 5826 5818 5809 5802 5797 5791 5787 5782 5776 5772 5767 5764 5761 5759 5754 5750 5747 5745 5742 5740 5738 5736 5735 5734 5733 5732 5732 5731 5731 5731 5731 5730 5730 5729 5728 5727 5727 5726
5807 5808 5811 5815 5817 5820 5814 5813 5811 5817 5825 5820 5813 5806 5803 5799 5793 5786 5781 5776 5772 5769 5765 5762 5758 5754 5750 5747 5744 5742 5739 5737 5735 5734 5732 5732 5731 5730 5730 5729 5729 5729 5729 5729 5728 5727 5726 5726 5725
5809 5801 5804 5812 5815 5817 5815 5804 5810 5822 5821 5814 5810 5806 5802 5799 5794 5789 5785 5780 5774 5770 5766 5762 5758 5754 5750 5747 5744 5741 5739 5736 5734 5733 5731 5730 5730 5729 5729 5728 5728 5728 5728 5728 5727 5726 5725 5725 5724
5799 5787 5782 5801 5810 5814 5806 5790 5813 5822 5816 5809 5807 5805 5800 5797 5794 5791 5786 5780 5775 5770 5765 5762 5758 5753 5750 5747 5744 5741 5738 5736 5734 5733 5731 5730 5729 5728 5727 5727 5727 5728 5727 5727 5726 5725 5724 5723 5722
5773 5767 5773 5788 5807 5807 5800 5793 5811 5818 5813 5806 5805 5803 5799 5795 5792 5791 5787 5781 5776 5771 5766 5761 5757 5754 5750 5747 5744 5740 5738 5736 5734 5733 5731 5730 5728 5728 5727 5727 5727 5727 5726 5726 5725 5724 5723 5721 5720
5763 5767 5770 5775 5796 5798 5793 5794 5807 5813 5811 5805 5804 5801 5798 5794 5794 5793 5788 5782 5776 5771 5766 5761 5757 5755 5751 5746 5742 5739 5737 5735 5734 5733 5732 5730 5729 5728 5727 5726 5726 5726 5726 5725 5724 5723 5722 5720 5720
5775 5770 5765 5776 5796 5793 5789 5791 5800 5807 5806 5802 5800 5798 5796 5795 5795 5792 5787 5781 5775 5769 5764 5761 5757 5754 5750 5745 5741 5738 5735 5735 5734 5733 5732 5731 5729 5728 5727 5727 5726 5726 5726 5725 5724 5722 5720 5718 5718
5774 5767 5766 5778 5794 5791 5786 5787 5797 5802 5803 5804 5801 5799 5797 5793 5790 5788 5784 5779 5773 5769 5764 5760 5757 5754 5751 5748 5744 5741 5738 5735 5735 5733 5732 5731 5729 5728 5727 5727 5727 5726 5726 5724 5723 5722 5719 5718 5718
5770 5766 5768 5772 5781 5785 5783 5776 5785 5796 5801 5803 5803 5801 5799 5794 5790 5788 5784 5780 5774 5768 5764 5762 5757 5754 5751 5748 5744 5740 5736 5734 5732 5731 5731 5731 5730 5729 5729 5728 5727 5727 5726 5724 5723 5723 5720 5717 5716
5761 5777 5776 5774 5764 5755 5768 5747 5771 5781 5787 5794 5797 5798 5797 5795 5791 5787 5783 5778 5775 5772 5767 5763 5758 5754 5751 5747 5744 5740 5737 5733 5734 5733 5732 5731 5730 5730 5729 5729 5728 5727 5726 5726 5725 5724 5722 5720 5716
5773 5783 5778 5773 5763 5751 5755 5747 5757 5774 5778 5787 5794 5797 5796 5794 5791 5786 5783 5780 5776 5772 5767 5763 5759 5754 5751 5748 5745 5741 5738 5736 5735 5734 5732 5731 5730 5730 5730 5729 5728 5728 5727 5726 5726 5724 5723 5721 5719
5785 5773 5763 5749 5742 5733 5749 5744 5748 5765 5778 5786 5792 5795 5795 5793 5790 5786 5783 5779 5774 5770 5767 5763 5758 5754 5751 5748 5745 5741 5738 5735 5733 5732 5730 5729 5729 5729 5729 5729 5728 5727 5727 5726 5725 5724 5723 5721 5720
5774 5748 5724 5725 5715 5722 5743 5741 5748 5777 5786 5788 5790 5791 5792 5790 5787 5784 5780 5775 5771 5768 5765 5762 5757 5753 5751 5748 5745 5742 5739 5736 5734 5732 5731 5729 5728 5728 5729 5728 5728 5727 5727 5726 5725 5724 5722 5721 5720
5761 5750 5722 5713 5710 5719 5737 5737 5760 5785 5790 5793 5794 5793 5790 5787 5784 5782 5779 5774 5770 5767 5764 5760 5756 5752 5750 5747 5744 5742 5739 5736 5734 5733 5732 5731 5730 5730 5729 5728 5727 5727 5727 5726 5724 5723 5722 5720 5719
5753 5747 5748 5722 5718 5716 5725 5742 5766 5785 5786 5788 5789 5788 5785 5784 5781 5779 5776 5772 5769 5765 5762 5759 5754 5752 5749 5747 5744 5741 5738 5736 5734 5733 5732 5731 5730 5729 5728 5727 5726 5726 5726 5725 5723 5721 5721 5720 5718
5767 5749 5729 5717 5704 5705 5722 5732 5744 5769 5775 5780 5783 5783 5782 5781 5778 5776 5773 5770 5767 5764 5761 5758 5754 5751 5748 5746 5743 5740 5738 5736 5734 5733 5731 5730 5729 5728 5727 5726 5725 5724 5724 5723 5722 5720 5719 5718 5716
5751 5745 5731 5716 5716 5703 5705 5727 5766 5772 5779 5778 5781 5782 5780 5778 5776 5773 5771 5768 5765 5762 5759 5755 5752 5749 5746 5744 5741 5739 5737 5736 5734 5732 5731 5730 5728 5727 5726 5724 5723 5723 5722 5721 5719 5718 5717 5715 5713
5762 5749 5735 5724 5717 5710 5710 5730 5779 5779 5781 5781 5780 5780 5778 5777 5775 5771 5769 5765 5762 5759 5756 5754 5750 5747 5745 5742 5740 5737 5736 5735 5733 5732 5730 5729 5727 5726 5724 5723 5721 5720 5720 5718 5717 5715 5714 5712 5710